Location: Casteau
(50.5142°N, 4.0161°E)
Time: 04:55:40
(UTC+00:00)

Vanguard 1 Rocket - Pass Details

Date: 30 July 2021
Orbit: 650 x 4226 km, 34.3° (Epoch: 21 September)

Event Time Altitude Azimuth Distance (km) Brightness Sun altitude
Rises 11:40:10 0° 243° (WSW) 7,195 12.1 57.8°
Reaches altitude 10° 11:46:23 10° 235° (SW) 5,564 11.8 57.9°
Maximum altitude 11:58:22 31° 182° (S) 2,805 11.3 57.8°
Drops below altitude 10° 12:05:27 10° 123° (ESE) 3,230 10.6 57.7°
Sets 12:08:00 0° 112° (ESE) 3,877 10.7 57.7°
